カタログに戻る

N-1 DEB

運用中LEO
NORAD 13132·DEBRIS·🇯🇵 Japan

打ち上げ Feb 16, 1978 から Tanegashima Space Center

Loading…

次のパス (今後24時間)

TLE

最新Source: Space-Track

元期: Sep 14, 2026, 07:01 UTC

1 13132U 78018C   26257.29240825 -.00000059  00000-0 -16537-4 0  9990
2 13132  69.2091 358.7590 0208737  29.4810   1.9363 13.34992836365281

AllMySatでN-1 DEBをリアルタイム追跡

Download on the App Store